Starlink 2658

operational
NORAD ID: 48473 Int'l Des: 2021-040 Owner: SPXS Country: US Constellation: starlink
LEOCIRCULARSTARLINK_TYPE

Über Starlink 2658

Beschreibung wird geladen...

Live-Position

3D-Globus wird geladen...

Nächste Überflüge

Höhenverlauf

Altitude vs Time

uPlot chart will show altitude changes over time

Zweizeiliger Elementsatz

1 48473U 21040AX 25304.61734941 .00013178 00000-0 90108-3 0 9993
2 48473 53.0544 51.0451 0001240 56.8455 303.2653 15.06434923247030
Epoch: 31. Okt. 2025 • Age: 19 hours

Aktueller Status

Höhe 546.6 km
Geschwindigkeit 7.59 km/s
Subsatellitenpunkt 16.19°N, 131.16°W
Startdatum 9. Mai 2021
Alter 4.4 years
Typ internet

Technische Details

Klassifizierung Payload
Masse 260.00 kg
Trockenmasse 248.00 kg
Gesamtmasse 260.00 kg
Länge 0.20 m
Durchmesser 2.80 m
Spannweite 9.00 m
Form Box + pan
Hersteller SPXS
Bus-Typ Starlink
Phasenstatus In Orbit
Besitzer/Staat SPXS/US

Große Konstellationen

Loading constellations...